Terminal Aerodrome Forecast
Issued by NWS Blacksburg, VA

Home | Current Version | Previous Version | Text Only | Print | Product List | Glossary On
Versions: 1 2 3 4 5 6 7 8 9 10 11 12 13 14 15 16 17 18 19 20 21 22 23 24 25 26 27 28 29 30 31 32 33 34 35 36
000
FTUS41 KRNK 110520
TAFBLF
TAF
KBLF 110520Z 1106/1206 00000KT P6SM BKN110
     FM111600 17007KT P6SM SCT150
     FM120100 17010G27KT P6SM BKN200=

USA.gov is the U.S. government's official web portal to all federal, state and local government web resources and services.